TimeEST,TemperatureF,Dew PointF,Humidity,Sea Level PressureIn,VisibilityMPH,Wind Direction,Wind SpeedMPH,Gust SpeedMPH,PrecipitationIn,Events,Conditions,WindDirDegrees,DateUTC
12:15 AM,46.4,42.8,87,30.11,10.0,Calm,Calm,-,N/A,,Clear,0,2013-01-22 05:15:00
12:35 AM,46.4,42.8,87,30.11,10.0,Calm,Calm,-,N/A,,Clear,0,2013-01-22 05:35:00
12:55 AM,48.2,41.0,76,30.11,10.0,Calm,Calm,-,N/A,,Clear,0,2013-01-22 05:55:00
1:15 AM,50.0,41.0,71,30.11,10.0,Calm,Calm,-,N/A,,Clear,0,2013-01-22 06:15:00
1:35 AM,50.0,41.0,71,30.11,10.0,Calm,Calm,-,N/A,,Clear,0,2013-01-22 06:35:00
2:15 AM,46.4,41.0,81,30.12,10.0,Calm,Calm,-,N/A,,Clear,0,2013-01-22 07:15:00
2:35 AM,48.2,39.2,71,30.12,10.0,Calm,Calm,-,N/A,,Clear,0,2013-01-22 07:35:00
2:55 AM,46.4,39.2,76,30.12,8.0,Calm,Calm,-,N/A,,Clear,0,2013-01-22 07:55:00
3:15 AM,48.2,39.2,71,30.12,10.0,North,6.9,-,N/A,,Clear,350,2013-01-22 08:15:00
3:35 AM,46.4,39.2,76,30.12,10.0,NNW,5.8,-,N/A,,Clear,340,2013-01-22 08:35:00
3:55 AM,46.4,39.2,76,30.12,10.0,NNW,6.9,-,N/A,,Clear,340,2013-01-22 08:55:00
4:15 AM,46.4,39.2,76,30.13,10.0,North,6.9,-,N/A,,Clear,350,2013-01-22 09:15:00
4:35 AM,46.4,37.4,71,30.13,10.0,North,6.9,-,N/A,,Clear,350,2013-01-22 09:35:00
4:55 AM,46.4,37.4,71,30.14,10.0,North,6.9,-,N/A,,Clear,350,2013-01-22 09:55:00
5:15 AM,44.6,37.4,76,30.15,10.0,North,6.9,-,N/A,,Clear,350,2013-01-22 10:15:00
5:35 AM,42.8,37.4,81,30.16,10.0,NNW,6.9,-,N/A,,Clear,340,2013-01-22 10:35:00
5:55 AM,42.8,37.4,81,30.17,10.0,North,9.2,-,N/A,,Clear,350,2013-01-22 10:55:00
6:15 AM,42.8,35.6,76,30.18,10.0,North,6.9,-,N/A,,Clear,350,2013-01-22 11:15:00
6:35 AM,41.0,35.6,81,30.19,10.0,North,5.8,-,N/A,,Clear,350,2013-01-22 11:35:00
6:50 AM,41.0,35.6,81,30.20,10.0,North,5.8,-,N/A,,Clear,360,2013-01-22 11:50:00
7:50 AM,41.0,32.0,70,30.23,10.0,NNW,5.8,-,N/A,,Clear,340,2013-01-22 12:50:00
8:50 AM,44.6,32.0,61,30.26,10.0,North,10.4,-,N/A,,Clear,350,2013-01-22 13:50:00
9:50 AM,46.4,28.4,50,30.28,10.0,North,9.2,-,N/A,,Clear,10,2013-01-22 14:50:00
10:50 AM,50.0,28.4,43,30.29,10.0,North,9.2,-,N/A,,Clear,10,2013-01-22 15:50:00
12:50 PM,57.2,26.6,31,30.26,10.0,North,8.1,-,N/A,,Clear,360,2013-01-22 17:50:00
1:50 PM,59.0,26.6,29,30.24,10.0,NNW,8.1,-,N/A,,Clear,330,2013-01-22 18:50:00
3:50 PM,62.6,28.4,27,30.23,10.0,NW,9.2,-,N/A,,Clear,320,2013-01-22 20:50:00
4:50 PM,59.0,30.2,34,30.25,10.0,NW,9.2,-,N/A,,Clear,320,2013-01-22 21:50:00
5:50 PM,55.4,30.2,38,30.26,10.0,NNW,3.5,-,N/A,,Clear,330,2013-01-22 22:50:00
6:50 PM,46.4,37.4,71,30.27,10.0,Calm,Calm,-,N/A,,Clear,0,2013-01-22 23:50:00
7:50 PM,41.0,35.6,81,30.28,10.0,Calm,Calm,-,N/A,,Clear,0,2013-01-23 00:50:00
8:15 PM,39.2,35.6,87,30.28,10.0,Calm,Calm,-,N/A,,Clear,0,2013-01-23 01:15:00
8:35 PM,39.2,35.6,87,30.29,10.0,Calm,Calm,-,N/A,,Clear,0,2013-01-23 01:35:00
8:55 PM,37.4,35.6,93,30.29,8.0,Calm,Calm,-,N/A,,Clear,0,2013-01-23 01:55:00
9:15 PM,37.4,33.8,87,30.29,5.0,Calm,Calm,-,N/A,,Clear,0,2013-01-23 02:15:00
9:35 PM,37.4,33.8,87,30.29,5.0,Calm,Calm,-,N/A,,Clear,0,2013-01-23 02:35:00
9:55 PM,35.6,32.0,87,30.29,5.0,Calm,Calm,-,N/A,,Clear,0,2013-01-23 02:55:00
10:15 PM,35.6,33.8,93,30.30,4.0,Calm,Calm,-,N/A,,Clear,0,2013-01-23 03:15:00
10:35 PM,35.6,32.0,87,30.31,3.0,Calm,Calm,-,N/A,,Clear,0,2013-01-23 03:35:00
10:55 PM,33.8,32.0,93,30.32,3.0,Calm,Calm,-,N/A,,Clear,0,2013-01-23 03:55:00
11:15 PM,33.8,32.0,93,30.32,3.0,Calm,Calm,-,N/A,,Clear,0,2013-01-23 04:15:00
11:35 PM,32.0,32.0,100,30.32,2.5,Calm,Calm,-,N/A,,Clear,0,2013-01-23 04:35:00
11:55 PM,32.0,32.0,100,30.32,2.5,Calm,Calm,-,N/A,,Clear,0,2013-01-23 04:55:00